IGA791 LTFJ-EBOS

Flight info

Callsign IGA791
Flight time 2h 59m
Altitude 34000
Route VADEN Y520 UTEKA DCT TUVAR DCT PETOV DCT GOLVA DCT SUBEN T161 AKINI T159 PETIX Z744 COSJE T892 RIDSU Z114 ADENU L608 SOGRI DCT BUB DCT DENUT
Aircraft B76F/H-SDE3FGHIJ3J7M3P2RWXY/LB1D1

Departure

Time 2026-04-23 08:02
Airport Istanbul Sabiha Gökçen International Airport (LTFJ)

Arrival

Time 2026-04-23 11:01
Airport Ostend-Bruges International Airport (EBOS)
Time Latitude Longitude Altitude Speed Heading
2026-04-23 07:21 40.89563 29.30839 324 ft 0 kts 154°
2026-04-23 07:52 40.89567 29.30837 324 ft 2 kts 154°
2026-04-23 07:52 40.89581 29.30828 324 ft 2 kts 154°
2026-04-23 07:52 40.89594 29.30820 324 ft 2 kts 154°
2026-04-23 07:52 40.89607 29.30811 324 ft 2 kts 154°
2026-04-23 07:53 40.89621 29.30802 324 ft 2 kts 136°
2026-04-23 07:53 40.89629 29.30786 324 ft 2 kts 104°
2026-04-23 07:53 40.89629 29.30766 324 ft 2 kts 74°
2026-04-23 07:53 40.89623 29.30748 324 ft 2 kts 61°
2026-04-23 07:54 40.89616 29.30731 324 ft 2 kts 64°
2026-04-23 07:54 40.89610 29.30713 324 ft 2 kts 64°
2026-04-23 07:54 40.89604 29.30695 324 ft 2 kts 64°
2026-04-23 07:54 40.89597 29.30677 324 ft 2 kts 64°
2026-04-23 07:55 40.89591 29.30661 324 ft 0 kts 64°
2026-04-23 07:57 40.89592 29.30663 324 ft 1 kts 64°
2026-04-23 07:57 40.89612 29.30713 324 ft 9 kts 58°
2026-04-23 07:58 40.89668 29.30724 324 ft 10 kts 337°
2026-04-23 07:58 40.89739 29.30681 324 ft 12 kts 335°
2026-04-23 07:58 40.89811 29.30615 324 ft 13 kts 290°
2026-04-23 07:58 40.89822 29.30485 324 ft 15 kts 274°
2026-04-23 07:59 40.89836 29.30335 324 ft 17 kts 272°
2026-04-23 07:59 40.89791 29.30179 324 ft 19 kts 243°
2026-04-23 07:59 40.89727 29.30005 324 ft 22 kts 244°
2026-04-23 07:59 40.89657 29.29812 324 ft 24 kts 244°
2026-04-23 08:00 40.89588 29.29627 324 ft 21 kts 244°
2026-04-23 08:00 40.89520 29.29438 324 ft 21 kts 244°
2026-04-23 08:00 40.89457 29.29280 324 ft 15 kts 229°
2026-04-23 08:00 40.89360 29.29278 324 ft 14 kts 155°
2026-04-23 08:01 40.89285 29.29365 324 ft 14 kts 88°
2026-04-23 08:01 40.89314 29.29455 324 ft 11 kts 64°
2026-04-23 08:01 40.89389 29.29657 324 ft 42 kts 64°
2026-04-23 08:01 40.89623 29.30289 324 ft 111 kts 64°
2026-04-23 08:02 40.90045 29.31453 495 ft 158 kts 62°
2026-04-23 08:02 40.90554 29.32815 1199 ft 173 kts 63°
2026-04-23 08:02 40.91076 29.34232 1953 ft 182 kts 63°
2026-04-23 08:02 40.91652 29.35806 2588 ft 196 kts 63°
2026-04-23 08:03 40.92273 29.37489 3143 ft 218 kts 63°
2026-04-23 08:03 40.92961 29.39353 3870 ft 236 kts 61°
2026-04-23 08:03 40.94012 29.41034 4676 ft 250 kts 33°
2026-04-23 08:03 40.95644 29.41791 5630 ft 260 kts
2026-04-23 08:04 40.97419 29.41314 6740 ft 267 kts 334°
2026-04-23 08:04 40.98947 29.39774 7020 ft 289 kts 311°
2026-04-23 08:04 40.99847 29.37485 6987 ft 280 kts 284°
2026-04-23 08:04 41.00096 29.34936 6993 ft 279 kts 277°
2026-04-23 08:05 41.00280 29.32414 6979 ft 276 kts 277°
2026-04-23 08:05 41.00613 29.29907 6985 ft 272 kts 294°
2026-04-23 08:05 41.01649 29.27891 7021 ft 268 kts 317°
2026-04-23 08:05 41.02961 29.26110 7054 ft 272 kts 313°
2026-04-23 08:06 41.04184 29.24151 7544 ft 279 kts 310°
2026-04-23 08:06 41.05349 29.22145 8782 ft 277 kts 308°
2026-04-23 08:06 41.06480 29.20112 9903 ft 279 kts 307°
2026-04-23 08:06 41.07608 29.18025 10856 ft 287 kts 306°
2026-04-23 08:07 41.08785 29.15809 11549 ft 305 kts 306°
2026-04-23 08:07 41.10036 29.13425 12205 ft 325 kts 306°
2026-04-23 08:07 41.11348 29.10913 12897 ft 342 kts 305°
2026-04-23 08:07 41.12714 29.08287 13916 ft 350 kts 305°
2026-04-23 08:08 41.14064 29.05685 15100 ft 351 kts 304°
2026-04-23 08:08 41.15455 29.03000 16125 ft 355 kts 304°
2026-04-23 08:08 41.16857 29.00291 17130 ft 359 kts 304°
2026-04-23 08:08 41.18267 28.97561 18108 ft 363 kts 303°
2026-04-23 08:09 41.19685 28.94816 19113 ft 365 kts 303°
2026-04-23 08:09 41.21128 28.92018 19981 ft 370 kts 303°
2026-04-23 08:09 41.22575 28.89210 20830 ft 373 kts 303°
2026-04-23 08:09 41.24041 28.86363 21676 ft 377 kts 302°
2026-04-23 08:10 41.25520 28.83488 22437 ft 381 kts 302°
2026-04-23 08:10 41.27016 28.80577 23205 ft 385 kts 301°
2026-04-23 08:10 41.30061 28.74641 24624 ft 394 kts 301°
2026-04-23 08:11 41.31588 28.71661 25424 ft 396 kts 301°
2026-04-23 08:11 41.33137 28.68636 26219 ft 399 kts 301°
2026-04-23 08:11 41.34701 28.65577 26924 ft 403 kts 300°
2026-04-23 08:11 41.36280 28.62486 27668 ft 405 kts 300°
2026-04-23 08:12 41.37872 28.59365 28257 ft 411 kts 300°
2026-04-23 08:12 41.39463 28.56246 28914 ft 413 kts 300°
2026-04-23 08:12 41.41094 28.53043 29506 ft 417 kts 300°
2026-04-23 08:12 41.42715 28.49857 30120 ft 419 kts 300°
2026-04-23 08:13 41.44342 28.46655 30725 ft 421 kts 300°
2026-04-23 08:13 41.45975 28.43441 31464 ft 418 kts 300°
2026-04-23 08:13 41.47587 28.40262 32053 ft 418 kts 300°
2026-04-23 08:13 41.49215 28.37048 32591 ft 419 kts 300°
2026-04-23 08:14 41.50834 28.33848 33125 ft 418 kts 300°
2026-04-23 08:14 41.52459 28.30636 33674 ft 415 kts 300°
2026-04-23 08:14 41.54077 28.27429 34020 ft 416 kts 300°
2026-04-23 08:14 41.55698 28.24216 34029 ft 414 kts 300°
2026-04-23 08:15 41.58922 28.17814 34047 ft 417 kts 300°
2026-04-23 08:15 41.62187 28.11320 34049 ft 419 kts 300°
2026-04-23 08:16 41.65400 28.04915 34041 ft 416 kts 301°
2026-04-23 08:16 41.68641 27.98438 34042 ft 419 kts 301°
2026-04-23 08:17 41.71867 27.91980 34038 ft 420 kts 301°
2026-04-23 08:17 41.75112 27.85470 34032 ft 419 kts 301°
2026-04-23 08:18 41.78340 27.78976 34034 ft 422 kts 301°
2026-04-23 08:18 41.81595 27.72418 34023 ft 423 kts 301°
2026-04-23 08:19 41.84842 27.65859 34031 ft 424 kts 302°
2026-04-23 08:19 41.88107 27.59252 34020 ft 424 kts 302°
2026-04-23 08:20 41.91369 27.52635 34025 ft 427 kts 302°
2026-04-23 08:20 41.94633 27.46000 34020 ft 430 kts 302°
2026-04-23 08:21 41.97920 27.39304 34018 ft 430 kts 302°
2026-04-23 08:21 42.01204 27.32599 34023 ft 431 kts 302°
2026-04-23 08:22 42.04503 27.25847 34025 ft 431 kts 302°
2026-04-23 08:22 42.07490 27.18905 34029 ft 428 kts 295°
2026-04-23 08:23 42.10120 27.11736 34028 ft 430 kts 295°
2026-04-23 08:23 42.12756 27.04475 34024 ft 433 kts 295°
2026-04-23 08:24 42.15382 26.97198 34008 ft 432 kts 295°
2026-04-23 08:24 42.18003 26.89902 34020 ft 433 kts 296°
2026-04-23 08:25 42.20637 26.82545 34028 ft 432 kts 296°
2026-04-23 08:25 42.23268 26.75173 34022 ft 432 kts 296°
2026-04-23 08:26 42.25857 26.67903 34026 ft 432 kts 296°
2026-04-23 08:26 42.28460 26.60577 34039 ft 434 kts 296°
2026-04-23 08:27 42.31057 26.53242 34036 ft 433 kts 297°
2026-04-23 08:27 42.33643 26.45926 34056 ft 433 kts 297°
2026-04-23 08:28 42.36222 26.38606 34039 ft 433 kts 297°
2026-04-23 08:28 42.38825 26.31199 34054 ft 436 kts 296°
2026-04-23 08:29 42.41477 26.23631 34049 ft 436 kts 296°
2026-04-23 08:29 42.44075 26.16200 34058 ft 439 kts 297°
2026-04-23 08:30 42.46686 26.08712 34048 ft 440 kts 297°
2026-04-23 08:30 42.49279 26.01251 34035 ft 439 kts 297°
2026-04-23 08:31 42.51864 25.93798 34056 ft 439 kts 297°
2026-04-23 08:31 42.54464 25.86276 34041 ft 443 kts 297°
2026-04-23 08:32 42.57069 25.78726 34020 ft 442 kts 297°
2026-04-23 08:32 42.59665 25.71179 34020 ft 443 kts 297°
2026-04-23 08:33 42.62270 25.63586 34016 ft 447 kts 298°
2026-04-23 08:33 42.64879 25.55957 34005 ft 446 kts 298°
2026-04-23 08:34 42.67476 25.48343 33998 ft 447 kts 298°
2026-04-23 08:34 42.70084 25.40676 33997 ft 449 kts 298°
2026-04-23 08:35 42.72710 25.32935 33990 ft 449 kts 297°
2026-04-23 08:35 42.75348 25.25139 33973 ft 451 kts 297°
2026-04-23 08:36 42.77953 25.17416 33981 ft 452 kts 297°
2026-04-23 08:36 42.80580 25.09601 33994 ft 456 kts 297°
2026-04-23 08:37 42.83208 25.01763 34004 ft 454 kts 298°
2026-04-23 08:37 42.85819 24.93957 33997 ft 457 kts 298°
2026-04-23 08:38 42.88448 24.86071 34012 ft 458 kts 298°
2026-04-23 08:38 42.91074 24.78173 34006 ft 460 kts 298°
2026-04-23 08:39 42.93704 24.70241 34013 ft 459 kts 298°
2026-04-23 08:39 42.96326 24.62310 34037 ft 462 kts 298°
2026-04-23 08:40 42.98963 24.54304 34044 ft 462 kts 298°
2026-04-23 08:40 43.01598 24.46281 34049 ft 463 kts 298°
2026-04-23 08:41 43.04219 24.38284 34064 ft 464 kts 298°
2026-04-23 08:41 43.06844 24.30246 34056 ft 464 kts 297°
2026-04-23 08:42 43.09514 24.22229 34049 ft 464 kts 302°
2026-04-23 08:42 43.12893 24.14736 34060 ft 461 kts 306°
2026-04-23 08:43 43.16311 24.07280 34078 ft 463 kts 307°
2026-04-23 08:43 43.19746 23.99778 34071 ft 465 kts 307°
2026-04-23 08:44 43.23166 23.92292 34074 ft 462 kts 307°
2026-04-23 08:44 43.26563 23.84839 34065 ft 463 kts 307°
2026-04-23 08:45 43.29944 23.77398 34078 ft 463 kts 307°
2026-04-23 08:45 43.33348 23.69889 34073 ft 464 kts 307°
2026-04-23 08:46 43.36748 23.62366 34093 ft 466 kts 307°
2026-04-23 08:46 43.40167 23.54783 34068 ft 469 kts 307°
2026-04-23 08:47 43.43575 23.47203 34088 ft 464 kts 307°
2026-04-23 08:47 43.46974 23.39627 34079 ft 468 kts 308°
2026-04-23 08:48 43.50365 23.32050 34073 ft 469 kts 307°
2026-04-23 08:48 43.53797 23.24362 34069 ft 469 kts 307°
2026-04-23 08:49 43.57217 23.16688 34068 ft 473 kts 307°
2026-04-23 08:49 43.60647 23.08972 34087 ft 472 kts 307°
2026-04-23 08:50 43.64058 23.01273 34070 ft 472 kts 307°
2026-04-23 08:50 43.67485 22.93522 34065 ft 473 kts 307°
2026-04-23 08:51 43.70898 22.85782 34073 ft 474 kts 307°
2026-04-23 08:51 43.74297 22.78050 34078 ft 473 kts 308°
2026-04-23 08:52 43.77707 22.70278 34092 ft 475 kts 308°
2026-04-23 08:52 43.81135 22.62439 34083 ft 477 kts 308°
2026-04-23 08:53 43.84552 22.54605 34088 ft 474 kts 308°
2026-04-23 08:53 43.87948 22.46799 34091 ft 476 kts 308°
2026-04-23 08:54 43.91345 22.38944 34098 ft 476 kts 307°
2026-04-23 08:54 43.94500 22.30823 34070 ft 477 kts 305°
2026-04-23 08:55 43.97664 22.22642 34082 ft 482 kts 304°
2026-04-23 08:55 44.00830 22.14427 34081 ft 479 kts 304°
2026-04-23 08:56 44.03972 22.06263 34084 ft 480 kts 305°
2026-04-23 08:56 44.07097 21.98115 34079 ft 480 kts 305°
2026-04-23 08:57 44.10229 21.89926 34079 ft 480 kts 305°
2026-04-23 08:57 44.13357 21.81727 34078 ft 480 kts 304°
2026-04-23 08:58 44.16492 21.73483 34085 ft 480 kts 304°
2026-04-23 08:58 44.19587 21.65319 34094 ft 479 kts 304°
2026-04-23 08:59 44.22683 21.57129 34110 ft 481 kts 305°
2026-04-23 08:59 44.25780 21.48910 34110 ft 479 kts 304°
2026-04-23 09:00 44.28874 21.40680 34117 ft 479 kts 305°
2026-04-23 09:00 44.31959 21.32445 34111 ft 480 kts 304°
2026-04-23 09:01 44.35045 21.24186 34112 ft 479 kts 304°
2026-04-23 09:01 44.38113 21.15950 34121 ft 480 kts 304°
2026-04-23 09:02 44.41191 21.07661 34128 ft 480 kts 304°
2026-04-23 09:02 44.44248 20.99404 34127 ft 479 kts 304°
2026-04-23 09:03 44.47300 20.91133 34125 ft 477 kts 304°
2026-04-23 09:03 44.50338 20.82884 34127 ft 479 kts 304°
2026-04-23 09:04 44.53377 20.74600 34130 ft 477 kts 304°
2026-04-23 09:04 44.56399 20.66341 34132 ft 477 kts 304°
2026-04-23 09:05 44.59400 20.58113 34140 ft 478 kts 304°
2026-04-23 09:05 44.62418 20.49813 34134 ft 478 kts 303°
2026-04-23 09:06 44.65416 20.41541 34139 ft 477 kts 303°
2026-04-23 09:06 44.68426 20.33215 34139 ft 477 kts 303°
2026-04-23 09:07 44.71423 20.24900 34137 ft 479 kts 303°
2026-04-23 09:07 44.74408 20.16586 34130 ft 477 kts 303°
2026-04-23 09:08 44.77370 20.08319 34125 ft 477 kts 303°
2026-04-23 09:08 44.80353 19.99965 34128 ft 478 kts 303°
2026-04-23 09:09 44.83329 19.91600 34125 ft 475 kts 303°
2026-04-23 09:09 44.86269 19.83320 34119 ft 478 kts 303°
2026-04-23 09:10 44.90689 19.70814 34122 ft 476 kts 303°
2026-04-23 09:11 44.93636 19.62447 34122 ft 477 kts 302°
2026-04-23 09:11 44.96563 19.54111 34125 ft 477 kts 303°
2026-04-23 09:12 44.99492 19.45739 34133 ft 476 kts 303°
2026-04-23 09:12 45.02392 19.37423 34133 ft 473 kts 303°
2026-04-23 09:13 45.05307 19.29049 34130 ft 476 kts 302°
2026-04-23 09:13 45.08201 19.20699 34135 ft 475 kts 302°
2026-04-23 09:14 45.11111 19.12280 34145 ft 474 kts 302°
2026-04-23 09:14 45.14139 19.04040 34149 ft 471 kts 306°
2026-04-23 09:15 45.17392 18.96009 34150 ft 471 kts 306°
2026-04-23 09:15 45.20594 18.88035 34152 ft 468 kts 306°
2026-04-23 09:16 45.23806 18.80014 34164 ft 471 kts 306°
2026-04-23 09:16 45.27024 18.71943 34160 ft 471 kts 306°
2026-04-23 09:17 45.30228 18.63882 34159 ft 468 kts 306°
2026-04-23 09:17 45.33401 18.55880 34164 ft 467 kts 306°
2026-04-23 09:18 45.36577 18.47846 34160 ft 467 kts 306°
2026-04-23 09:18 45.39739 18.39823 34166 ft 467 kts 306°
2026-04-23 09:19 45.42909 18.31759 34163 ft 468 kts 305°
2026-04-23 09:19 45.46075 18.23682 34169 ft 469 kts 305°
2026-04-23 09:20 45.49237 18.15585 34165 ft 466 kts 305°
2026-04-23 09:20 45.52377 18.07525 34175 ft 465 kts 305°
2026-04-23 09:21 45.55502 17.99485 34178 ft 467 kts 305°
2026-04-23 09:21 45.58642 17.91377 34181 ft 467 kts 305°
2026-04-23 09:22 45.61753 17.83319 34179 ft 465 kts 305°
2026-04-23 09:22 45.64845 17.75290 34179 ft 465 kts 305°
2026-04-23 09:23 45.67963 17.67170 34183 ft 465 kts 305°
2026-04-23 09:23 45.71043 17.59124 34189 ft 465 kts 305°
2026-04-23 09:24 45.74134 17.51027 34189 ft 466 kts 305°
2026-04-23 09:24 45.77223 17.42907 34189 ft 464 kts 305°
2026-04-23 09:25 45.80309 17.34771 34191 ft 464 kts 304°
2026-04-23 09:25 45.83378 17.26661 34184 ft 464 kts 304°
2026-04-23 09:26 45.86432 17.18563 34184 ft 464 kts 304°
2026-04-23 09:26 45.89501 17.10404 34192 ft 466 kts 304°
2026-04-23 09:27 45.92556 17.02252 34187 ft 463 kts 304°
2026-04-23 09:27 45.95591 16.94135 34192 ft 464 kts 304°
2026-04-23 09:28 45.98628 16.85983 34191 ft 464 kts 304°
2026-04-23 09:28 46.01651 16.77848 34193 ft 464 kts 304°
2026-04-23 09:29 46.04695 16.69633 34191 ft 465 kts 304°
2026-04-23 09:29 46.07711 16.61464 34192 ft 463 kts 304°
2026-04-23 09:30 46.10728 16.53271 34193 ft 464 kts 304°
2026-04-23 09:30 46.13730 16.45091 34191 ft 462 kts 304°
2026-04-23 09:31 46.16737 16.36877 34196 ft 464 kts 304°
2026-04-23 09:31 46.19767 16.28574 34189 ft 464 kts 303°
2026-04-23 09:32 46.22768 16.20320 34189 ft 465 kts 303°
2026-04-23 09:32 46.25745 16.12109 34193 ft 463 kts 303°
2026-04-23 09:33 46.28759 16.03862 34196 ft 460 kts 307°
2026-04-23 09:33 46.32753 15.96928 34210 ft 444 kts 326°
2026-04-23 09:34 46.37864 15.92180 34204 ft 435 kts 336°
2026-04-23 09:34 46.43139 15.87854 34202 ft 435 kts 337°
2026-04-23 09:35 46.48394 15.83576 34205 ft 434 kts 337°
2026-04-23 09:35 46.53654 15.79299 34207 ft 435 kts 337°
2026-04-23 09:36 46.58897 15.75033 34202 ft 433 kts 337°
2026-04-23 09:36 46.64158 15.70745 34198 ft 433 kts 337°
2026-04-23 09:37 46.69424 15.66423 34192 ft 435 kts 335°
2026-04-23 09:37 46.74208 15.60906 34199 ft 444 kts 326°
2026-04-23 09:38 46.78868 15.54979 34192 ft 443 kts 325°
2026-04-23 09:38 46.83466 15.49084 34193 ft 444 kts 325°
2026-04-23 09:39 46.88105 15.43104 34193 ft 444 kts 325°
2026-04-23 09:39 46.92715 15.37148 34198 ft 444 kts 325°
2026-04-23 09:40 46.97367 15.31119 34190 ft 444 kts 324°
2026-04-23 09:40 47.01978 15.25129 34193 ft 445 kts 324°
2026-04-23 09:41 47.06603 15.19106 34195 ft 445 kts 324°
2026-04-23 09:41 47.11226 15.13070 34198 ft 444 kts 324°
2026-04-23 09:42 47.15833 15.07041 34194 ft 445 kts 324°
2026-04-23 09:42 47.20463 15.00967 34191 ft 445 kts 324°
2026-04-23 09:43 47.25078 14.94898 34200 ft 444 kts 324°
2026-04-23 09:43 47.29681 14.88830 34224 ft 445 kts 324°
2026-04-23 09:44 47.34270 14.82766 34222 ft 445 kts 324°
2026-04-23 09:44 47.38877 14.76663 34221 ft 444 kts 324°
2026-04-23 09:45 47.43487 14.70541 34213 ft 445 kts 324°
2026-04-23 09:45 47.48049 14.64468 34221 ft 444 kts 324°
2026-04-23 09:46 47.52637 14.58346 34227 ft 443 kts 324°
2026-04-23 09:46 47.57204 14.52237 34228 ft 444 kts 324°
2026-04-23 09:47 47.61762 14.46125 34235 ft 443 kts 324°
2026-04-23 09:47 47.66340 14.39971 34240 ft 443 kts 324°
2026-04-23 09:48 47.70908 14.33815 34238 ft 444 kts 324°
2026-04-23 09:48 47.75531 14.27569 34246 ft 446 kts 324°
2026-04-23 09:49 47.80094 14.21388 34242 ft 445 kts 324°
2026-04-23 09:49 47.84651 14.15201 34249 ft 445 kts 324°
2026-04-23 09:50 47.89227 14.08971 34252 ft 445 kts 324°
2026-04-23 09:50 47.93786 14.02751 34250 ft 444 kts 324°
2026-04-23 09:51 47.98317 13.96553 34261 ft 445 kts 324°
2026-04-23 09:51 48.02891 13.90279 34267 ft 445 kts 324°
2026-04-23 09:52 48.07428 13.84040 34273 ft 443 kts 324°
2026-04-23 09:52 48.11988 13.77757 34289 ft 444 kts 324°
2026-04-23 09:53 48.16547 13.71458 34285 ft 446 kts 324°
2026-04-23 09:53 48.21077 13.65182 34282 ft 446 kts 324°
2026-04-23 09:54 48.25647 13.58836 34283 ft 447 kts 324°
2026-04-23 09:54 48.30190 13.52509 34280 ft 445 kts 324°
2026-04-23 09:55 48.34687 13.46229 34279 ft 439 kts 324°
2026-04-23 09:55 48.39183 13.39939 34286 ft 441 kts 324°
2026-04-23 09:56 48.43272 13.32972 34290 ft 453 kts 308°
2026-04-23 09:56 48.45902 13.24217 34292 ft 465 kts 297°
2026-04-23 09:57 48.48351 13.15209 34290 ft 463 kts 298°
2026-04-23 09:57 48.50890 13.06255 34289 ft 463 kts 299°
2026-04-23 09:58 48.53433 12.97399 34290 ft 464 kts 299°
2026-04-23 09:58 48.55994 12.88492 34286 ft 463 kts 299°
2026-04-23 09:59 48.58562 12.79542 34288 ft 464 kts 299°
2026-04-23 09:59 48.61106 12.70652 34283 ft 465 kts 299°
2026-04-23 10:00 48.63668 12.61662 34282 ft 464 kts 299°
2026-04-23 10:00 48.66195 12.52769 34284 ft 465 kts 299°
2026-04-23 10:01 48.68744 12.43763 34287 ft 466 kts 299°
2026-04-23 10:01 48.71262 12.34830 34291 ft 465 kts 298°
2026-04-23 10:02 48.73814 12.25750 34284 ft 468 kts 298°
2026-04-23 10:02 48.76360 12.16648 34291 ft 468 kts 298°
2026-04-23 10:03 48.78887 12.07582 34292 ft 468 kts 298°
2026-04-23 10:03 48.81413 11.98482 34288 ft 468 kts 298°
2026-04-23 10:04 48.83936 11.89362 34295 ft 468 kts 298°
2026-04-23 10:04 48.86437 11.80284 34300 ft 468 kts 298°
2026-04-23 10:05 48.88955 11.71112 34304 ft 470 kts 297°
2026-04-23 10:05 48.91448 11.61997 34309 ft 471 kts 297°
2026-04-23 10:06 48.93936 11.52859 34312 ft 470 kts 297°
2026-04-23 10:06 48.96446 11.43608 34309 ft 470 kts 297°
2026-04-23 10:07 48.98929 11.34417 34305 ft 471 kts 297°
2026-04-23 10:07 49.01410 11.25201 34298 ft 471 kts 297°
2026-04-23 10:08 49.03891 11.15947 34300 ft 473 kts 296°
2026-04-23 10:08 49.06380 11.06623 34310 ft 473 kts 296°
2026-04-23 10:09 49.10063 10.92759 34308 ft 473 kts 296°
2026-04-23 10:09 49.12549 10.83358 34313 ft 473 kts 296°
2026-04-23 10:10 49.14990 10.74087 34317 ft 473 kts 296°
2026-04-23 10:10 49.17456 10.64681 34323 ft 474 kts 296°
2026-04-23 10:11 49.19883 10.55386 34324 ft 475 kts 296°
2026-04-23 10:11 49.22331 10.45975 34329 ft 474 kts 296°
2026-04-23 10:12 49.24767 10.36571 34327 ft 474 kts 296°
2026-04-23 10:12 49.27209 10.27105 34325 ft 475 kts 295°
2026-04-23 10:13 49.29621 10.17716 34327 ft 475 kts 295°
2026-04-23 10:13 49.32025 10.08318 34338 ft 476 kts 295°
2026-04-23 10:14 49.34426 9.98894 34338 ft 476 kts 295°
2026-04-23 10:14 49.36832 9.89406 34341 ft 476 kts 295°
2026-04-23 10:15 49.39217 9.79965 34340 ft 477 kts 295°
2026-04-23 10:15 49.41598 9.70505 34343 ft 477 kts 294°
2026-04-23 10:16 49.43980 9.60995 34345 ft 478 kts 294°
2026-04-23 10:16 49.46353 9.51481 34337 ft 477 kts 294°
2026-04-23 10:17 49.48720 9.41955 34334 ft 478 kts 294°
2026-04-23 10:17 49.51074 9.32432 34323 ft 478 kts 294°
2026-04-23 10:18 49.53450 9.22788 34328 ft 478 kts 293°
2026-04-23 10:18 49.55787 9.13255 34329 ft 478 kts 293°
2026-04-23 10:19 49.58125 9.03680 34337 ft 479 kts 293°
2026-04-23 10:19 49.60462 8.94066 34343 ft 480 kts 293°
2026-04-23 10:20 49.62793 8.84432 34348 ft 480 kts 293°
2026-04-23 10:20 49.65115 8.74797 34352 ft 481 kts 293°
2026-04-23 10:21 49.67389 8.65318 35433 ft 455 kts 293°
2026-04-23 10:21 49.68487 8.60745 35846 ft 456 kts 293°
2026-04-23 10:21 49.69620 8.56082 35309 ft 477 kts 292°
2026-04-23 10:22 49.70755 8.51303 34850 ft 486 kts 292°
2026-04-23 10:22 49.71920 8.46355 34331 ft 486 kts 292°
2026-04-23 10:22 49.73069 8.41478 34357 ft 473 kts 292°
2026-04-23 10:22 49.74199 8.36686 34350 ft 474 kts 292°
2026-04-23 10:23 49.76481 8.27002 34345 ft 487 kts 291°
2026-04-23 10:23 49.78779 8.17203 34340 ft 485 kts 291°
2026-04-23 10:24 49.81061 8.07432 34344 ft 485 kts 291°
2026-04-23 10:24 49.83121 7.97433 34343 ft 485 kts 287°
2026-04-23 10:25 49.85003 7.87444 34348 ft 484 kts 287°
2026-04-23 10:25 49.86869 7.77436 34343 ft 484 kts 287°
2026-04-23 10:26 49.88753 7.67255 34344 ft 483 kts 287°
2026-04-23 10:26 49.90590 7.57272 34365 ft 484 kts 287°
2026-04-23 10:27 49.92432 7.47208 34368 ft 484 kts 287°
2026-04-23 10:27 49.94252 7.37204 34370 ft 484 kts 286°
2026-04-23 10:28 49.96135 7.27097 34363 ft 483 kts 290°
2026-04-23 10:28 49.99265 7.18024 34382 ft 480 kts 307°
2026-04-23 10:29 50.02912 7.09249 34379 ft 483 kts 302°
2026-04-23 10:29 50.06291 7.00239 34376 ft 481 kts 301°
2026-04-23 10:30 50.09591 6.91128 34380 ft 483 kts 300°
2026-04-23 10:30 50.12870 6.81945 34380 ft 483 kts 300°
2026-04-23 10:31 50.16139 6.72720 34379 ft 482 kts 300°
2026-04-23 10:31 50.19366 6.63575 34373 ft 482 kts 300°
2026-04-23 10:32 50.22597 6.54380 34362 ft 482 kts 300°
2026-04-23 10:32 50.25809 6.45209 34358 ft 483 kts 300°
2026-04-23 10:33 50.29090 6.35806 34356 ft 484 kts 300°
2026-04-23 10:33 50.32321 6.26511 34354 ft 483 kts 298°
2026-04-23 10:34 50.35547 6.17197 34359 ft 484 kts 298°
2026-04-23 10:34 50.38747 6.07923 34360 ft 484 kts 298°
2026-04-23 10:35 50.41939 5.98642 34360 ft 484 kts 298°
2026-04-23 10:35 50.45120 5.89354 34362 ft 483 kts 298°
2026-04-23 10:36 50.48336 5.79930 34372 ft 484 kts 298°
2026-04-23 10:36 50.51539 5.70510 34394 ft 484 kts 298°
2026-04-23 10:37 50.54710 5.61148 34393 ft 483 kts 298°
2026-04-23 10:37 50.57881 5.51753 34403 ft 485 kts 298°
2026-04-23 10:38 50.61041 5.42359 34406 ft 484 kts 298°
2026-04-23 10:38 50.64172 5.33010 34404 ft 485 kts 297°
2026-04-23 10:39 50.67358 5.23462 34401 ft 485 kts 297°
2026-04-23 10:39 50.70530 5.13923 34038 ft 484 kts 297°
2026-04-23 10:40 50.72091 5.09216 33774 ft 478 kts 297°
2026-04-23 10:40 50.73631 5.04559 33283 ft 480 kts 297°
2026-04-23 10:40 50.75188 4.99844 32768 ft 480 kts 297°
2026-04-23 10:40 50.76736 4.95150 32237 ft 479 kts 297°
2026-04-23 10:41 50.78269 4.90490 31705 ft 480 kts 297°
2026-04-23 10:41 50.79808 4.85807 31159 ft 480 kts 297°
2026-04-23 10:41 50.81347 4.81110 30618 ft 482 kts 297°
2026-04-23 10:41 50.82930 4.76272 30045 ft 483 kts 297°
2026-04-23 10:42 50.84477 4.71535 29501 ft 480 kts 297°
2026-04-23 10:42 50.86026 4.66784 28993 ft 473 kts 297°
2026-04-23 10:42 50.87524 4.62179 28461 ft 467 kts 297°
2026-04-23 10:42 50.89010 4.57602 27813 ft 464 kts 297°
2026-04-23 10:43 50.90475 4.53143 27458 ft 455 kts 299°
2026-04-23 10:43 50.92120 4.48875 26813 ft 454 kts 302°
2026-04-23 10:43 50.93781 4.44575 26251 ft 449 kts 302°
2026-04-23 10:43 50.95399 4.40379 25705 ft 444 kts 302°
2026-04-23 10:44 50.96983 4.36253 25163 ft 439 kts 301°
2026-04-23 10:44 50.98574 4.32098 24617 ft 433 kts 301°
2026-04-23 10:44 51.00153 4.27970 24083 ft 427 kts 301°
2026-04-23 10:44 51.01666 4.23941 23534 ft 421 kts 297°
2026-04-23 10:45 51.02797 4.19680 22755 ft 407 kts 283°
2026-04-23 10:45 51.03194 4.15292 22134 ft 399 kts 268°
2026-04-23 10:45 51.03186 4.10936 21540 ft 401 kts 271°
2026-04-23 10:45 51.03402 4.06471 20899 ft 402 kts 275°
2026-04-23 10:46 51.03725 4.02140 20266 ft 396 kts 277°
2026-04-23 10:46 51.04108 3.97834 19624 ft 390 kts 278°
2026-04-23 10:46 51.04522 3.93616 19015 ft 386 kts 278°
2026-04-23 10:46 51.04959 3.89368 18406 ft 381 kts 279°
2026-04-23 10:47 51.05401 3.85184 17802 ft 378 kts 279°
2026-04-23 10:47 51.05838 3.81092 17246 ft 376 kts 280°
2026-04-23 10:47 51.06274 3.77039 16670 ft 373 kts 280°
2026-04-23 10:47 51.06709 3.72999 16075 ft 371 kts 280°
2026-04-23 10:48 51.07143 3.68958 15517 ft 367 kts 281°
2026-04-23 10:48 51.07568 3.65011 14945 ft 364 kts 281°
2026-04-23 10:48 51.07995 3.61030 14407 ft 361 kts 282°
2026-04-23 10:48 51.08413 3.57119 13826 ft 358 kts 282°
2026-04-23 10:49 51.08836 3.53148 13343 ft 359 kts 282°
2026-04-23 10:49 51.09247 3.49269 12776 ft 355 kts 282°
2026-04-23 10:49 51.09636 3.45606 12301 ft 353 kts 282°
2026-04-23 10:49 51.10022 3.41935 11868 ft 350 kts 282°
2026-04-23 10:50 51.10436 3.38006 11391 ft 347 kts 282°
2026-04-23 10:50 51.10827 3.34278 10960 ft 345 kts 282°
2026-04-23 10:50 51.11225 3.30473 10538 ft 341 kts 282°
2026-04-23 10:50 51.11607 3.26798 10195 ft 335 kts 282°
2026-04-23 10:51 51.11979 3.23211 9981 ft 325 kts 282°
2026-04-23 10:51 51.12339 3.19729 9896 ft 312 kts 282°
2026-04-23 10:51 51.12681 3.16407 9874 ft 298 kts 282°
2026-04-23 10:51 51.13014 3.13177 9858 ft 292 kts 282°
2026-04-23 10:52 51.13341 3.10004 9776 ft 291 kts 282°
2026-04-23 10:52 51.13667 3.06822 9496 ft 291 kts 282°
2026-04-23 10:52 51.13732 3.03639 9209 ft 292 kts 262°
2026-04-23 10:52 51.13309 3.00472 8882 ft 293 kts 259°
2026-04-23 10:53 51.12869 2.97318 8530 ft 294 kts 259°
2026-04-23 10:53 51.12411 2.94130 8181 ft 295 kts 258°
2026-04-23 10:53 51.11941 2.90919 7810 ft 296 kts 258°
2026-04-23 10:53 51.11469 2.87723 7420 ft 298 kts 258°
2026-04-23 10:54 51.10997 2.84551 7005 ft 300 kts 258°
2026-04-23 10:54 51.10513 2.81306 6520 ft 303 kts 257°
2026-04-23 10:54 51.10025 2.78053 5990 ft 300 kts 257°
2026-04-23 10:54 51.09543 2.74856 5529 ft 290 kts 257°
2026-04-23 10:55 51.09086 2.71823 5328 ft 276 kts 257°
2026-04-23 10:55 51.08640 2.68865 5237 ft 277 kts 257°
2026-04-23 10:55 51.08246 2.65899 5048 ft 273 kts 268°
2026-04-23 10:55 51.08524 2.62945 4893 ft 269 kts 296°
2026-04-23 10:56 51.09576 2.60586 4414 ft 267 kts 324°
2026-04-23 10:56 51.11219 2.59197 3969 ft 275 kts 347°
2026-04-23 10:56 51.13057 2.58919 3479 ft 260 kts 14°
2026-04-23 10:56 51.14625 2.60050 3235 ft 237 kts 44°
2026-04-23 10:57 51.15533 2.62097 3046 ft 221 kts 66°
2026-04-23 10:57 51.16095 2.64303 2816 ft 212 kts 69°
2026-04-23 10:57 51.16589 2.66452 2595 ft 200 kts 71°
2026-04-23 10:57 51.16975 2.68515 2313 ft 187 kts 75°
2026-04-23 10:58 51.17287 2.70429 1901 ft 167 kts 74°
2026-04-23 10:58 51.17573 2.72098 1626 ft 151 kts 73°
2026-04-23 10:58 51.17806 2.73694 1325 ft 148 kts 76°
2026-04-23 10:58 51.18075 2.75259 1046 ft 143 kts 70°
2026-04-23 10:59 51.18373 2.76706 860 ft 134 kts 72°
2026-04-23 10:59 51.18586 2.78147 685 ft 132 kts 75°
2026-04-23 10:59 51.18795 2.79570 570 ft 130 kts 73°
2026-04-23 10:59 51.19005 2.80940 444 ft 127 kts 73°
2026-04-23 11:00 51.19200 2.82304 312 ft 125 kts 74°
2026-04-23 11:00 51.19408 2.83651 230 ft 128 kts 73°
2026-04-23 11:00 51.19624 2.85081 111 ft 134 kts 73°
2026-04-23 11:00 51.19839 2.86510 13 ft 129 kts 74°
2026-04-23 11:01 51.20016 2.87661 12 ft 74 kts 76°
2026-04-23 11:01 51.20100 2.88223 12 ft 30 kts 77°
2026-04-23 11:01 51.20167 2.88314 12 ft 13 kts 351°
2026-04-23 11:01 51.20241 2.88234 12 ft 13 kts 302°
2026-04-23 11:02 51.20246 2.88075 12 ft 16 kts 256°
2026-04-23 11:02 51.20216 2.87878 12 ft 18 kts 257°
2026-04-23 11:02 51.20186 2.87682 12 ft 17 kts 258°
2026-04-23 11:02 51.20191 2.87603 12 ft 6 kts 314°
2026-04-23 11:03 51.20245 2.87576 12 ft 10 kts 348°
2026-04-23 11:03 51.20316 2.87545 12 ft 7 kts 327°
2026-04-23 11:03 51.20321 2.87460 12 ft 10 kts 258°
2026-04-23 11:03 51.20320 2.87371 12 ft 6 kts 309°
2026-04-23 11:04 51.20367 2.87347 12 ft 8 kts 347°
2026-04-23 11:04 51.20390 2.87339 12 ft 0 kts 347°